Time,TemperatureF,DewpointF,PressureIn,WindDirection,WindDirectionDegrees,WindSpeedMPH,WindSpeedGustMPH,Humidity,HourlyPrecipIn,Conditions,Clouds,dailyrainin,SoftwareType,DateUTC
2013-02-09 00:10:00,25.1,24.0,29.79,NW,307,2.0,10.0,96,0.00,,,0.00,weatherlink.com 1.10,2013-02-09 05:10:00,
2013-02-09 00:40:00,25.2,24.0,29.80,NW,306,2.0,6.0,96,0.00,,,0.00,weatherlink.com 1.10,2013-02-09 05:40:00,
2013-02-09 00:55:00,25.4,25.0,29.80,NNE,16,4.0,6.0,96,0.00,,,0.00,weatherlink.com 1.10,2013-02-09 05:55:00,
2013-02-09 01:11:00,25.5,25.0,29.80,NNW,332,1.0,5.0,96,0.00,,,0.00,weatherlink.com 1.10,2013-02-09 06:11:00,
2013-02-09 01:25:00,25.7,25.0,29.80,North,353,2.0,6.0,96,0.00,,,0.00,weatherlink.com 1.10,2013-02-09 06:25:00,
2013-02-09 01:41:00,25.8,25.0,29.81,NNE,17,1.0,5.0,96,0.00,,,0.00,weatherlink.com 1.10,2013-02-09 06:41:00,
2013-02-09 01:56:00,26.0,25.0,29.82,NNW,328,5.0,5.0,96,0.00,,,0.00,weatherlink.com 1.10,2013-02-09 06:56:00,
2013-02-09 02:10:00,26.1,25.0,29.82,NNW,331,2.0,6.0,96,0.00,,,0.00,weatherlink.com 1.10,2013-02-09 07:10:00,
2013-02-09 02:25:00,26.2,25.0,29.82,NNW,328,2.0,10.0,96,0.00,,,0.00,weatherlink.com 1.10,2013-02-09 07:25:00,
2013-02-09 02:40:00,26.1,25.0,29.82,NNE,13,6.0,8.0,96,0.00,,,0.00,weatherlink.com 1.10,2013-02-09 07:40:00,
2013-02-09 02:55:00,25.8,25.0,29.83,NNW,343,6.0,10.0,96,0.00,,,0.00,weatherlink.com 1.10,2013-02-09 07:55:00,
2013-02-09 03:10:00,25.5,25.0,29.82,NNW,338,6.0,8.0,96,0.00,,,0.00,weatherlink.com 1.10,2013-02-09 08:10:00,
2013-02-09 03:25:00,25.4,25.0,29.83,North,4,4.0,9.0,96,0.00,,,0.00,weatherlink.com 1.10,2013-02-09 08:25:00,
2013-02-09 03:41:00,25.2,24.0,29.83,WNW,295,4.0,9.0,96,0.00,,,0.00,weatherlink.com 1.10,2013-02-09 08:41:00,
2013-02-09 03:56:00,25.0,24.0,29.84,NW,321,6.0,11.0,96,0.00,,,0.00,weatherlink.com 1.10,2013-02-09 08:56:00,
2013-02-09 04:11:00,25.0,24.0,29.84,North,6,3.0,9.0,96,0.00,,,0.00,weatherlink.com 1.10,2013-02-09 09:11:00,
2013-02-09 04:26:00,25.0,24.0,29.85,NNE,13,2.0,9.0,96,0.00,,,0.00,weatherlink.com 1.10,2013-02-09 09:26:00,
2013-02-09 04:41:00,25.0,24.0,29.85,NW,310,5.0,6.0,96,0.00,,,0.00,weatherlink.com 1.10,2013-02-09 09:41:00,
2013-02-09 04:56:00,25.0,24.0,29.85,NNW,335,3.0,5.0,96,0.00,,,0.00,weatherlink.com 1.10,2013-02-09 09:56:00,
2013-02-09 05:11:00,25.0,24.0,29.86,WNW,300,4.0,10.0,96,0.00,,,0.00,weatherlink.com 1.10,2013-02-09 10:11:00,
2013-02-09 05:26:00,25.1,24.0,29.86,NNW,345,2.0,10.0,96,0.00,,,0.00,weatherlink.com 1.10,2013-02-09 10:26:00,
2013-02-09 05:41:00,25.3,24.0,29.86,NNW,329,3.0,7.0,96,0.00,,,0.00,weatherlink.com 1.10,2013-02-09 10:41:00,
2013-02-09 05:56:00,25.4,25.0,29.86,NW,323,2.0,7.0,96,0.00,,,0.00,weatherlink.com 1.10,2013-02-09 10:56:00,
2013-02-09 06:11:00,25.5,24.0,29.87,NE,41,4.0,9.0,95,0.00,,,0.00,weatherlink.com 1.10,2013-02-09 11:11:00,
2013-02-09 06:26:00,25.6,24.0,29.87,NNW,338,4.0,9.0,95,0.00,,,0.00,weatherlink.com 1.10,2013-02-09 11:26:00,
2013-02-09 06:41:00,25.7,24.0,29.87,NNW,340,4.0,14.0,94,0.00,,,0.00,weatherlink.com 1.10,2013-02-09 11:41:00,
2013-02-09 06:56:00,26.1,25.0,29.88,NW,325,5.0,15.0,94,0.00,,,0.00,weatherlink.com 1.10,2013-02-09 11:56:00,
2013-02-09 07:11:00,26.3,24.0,29.89,NNW,329,8.0,18.0,92,0.00,,,0.00,weatherlink.com 1.10,2013-02-09 12:11:00,
2013-02-09 07:26:00,26.5,24.0,29.90,North,11,6.0,11.0,91,0.00,,,0.00,weatherlink.com 1.10,2013-02-09 12:26:00,
2013-02-09 07:41:00,26.6,24.0,29.91,NW,314,4.0,11.0,90,0.00,,,0.00,weatherlink.com 1.10,2013-02-09 12:41:00,
2013-02-09 07:56:00,26.4,23.0,29.93,NNW,327,4.0,12.0,87,0.00,,,0.00,weatherlink.com 1.10,2013-02-09 12:56:00,
2013-02-09 08:11:00,25.9,22.0,29.94,North,356,7.0,19.0,86,0.00,,,0.00,weatherlink.com 1.10,2013-02-09 13:11:00,
2013-02-09 08:26:00,25.3,21.0,29.94,NW,318,4.0,17.0,85,0.00,,,0.00,weatherlink.com 1.10,2013-02-09 13:26:00,
2013-02-09 08:41:00,25.0,21.0,29.95,NNE,18,4.0,13.0,84,0.00,,,0.00,weatherlink.com 1.10,2013-02-09 13:41:00,
2013-02-09 08:56:00,24.8,20.0,29.96,NE,36,7.0,15.0,82,0.00,,,0.00,weatherlink.com 1.10,2013-02-09 13:56:00,
2013-02-09 09:11:00,24.8,19.0,29.98,WSW,255,3.0,11.0,80,0.00,,,0.00,weatherlink.com 1.10,2013-02-09 14:11:00,
2013-02-09 09:27:00,24.7,19.0,29.98,NW,325,3.0,14.0,79,0.00,,,0.00,weatherlink.com 1.10,2013-02-09 14:27:00,
2013-02-09 09:42:00,24.9,19.0,29.99,NW,314,5.0,14.0,78,0.00,,,0.00,weatherlink.com 1.10,2013-02-09 14:42:00,
2013-02-09 09:57:00,25.0,18.0,30.00,NW,326,6.0,13.0,75,0.00,,,0.00,weatherlink.com 1.10,2013-02-09 14:57:00,
2013-02-09 10:12:00,25.3,17.0,30.00,NNW,340,5.0,13.0,72,0.00,,,0.00,weatherlink.com 1.10,2013-02-09 15:12:00,
2013-02-09 10:27:00,25.9,17.0,30.01,North,11,4.0,10.0,70,0.00,,,0.00,weatherlink.com 1.10,2013-02-09 15:27:00,
2013-02-09 10:42:00,27.4,17.0,30.02,NNW,338,9.0,17.0,65,0.00,,,0.00,weatherlink.com 1.10,2013-02-09 15:42:00,
2013-02-09 10:57:00,28.2,17.0,30.03,NNE,20,7.0,13.0,64,0.00,,,0.00,weatherlink.com 1.10,2013-02-09 15:57:00,
2013-02-09 11:27:00,28.6,16.0,30.04,NNW,333,8.0,16.0,59,0.00,,,0.00,weatherlink.com 1.10,2013-02-09 16:27:00,
2013-02-09 11:42:00,29.3,16.0,30.04,NW,315,4.0,17.0,57,0.00,,,0.00,weatherlink.com 1.10,2013-02-09 16:42:00,
2013-02-09 11:57:00,29.8,16.0,30.05,NE,38,4.0,16.0,57,0.00,,,0.00,weatherlink.com 1.10,2013-02-09 16:57:00,
2013-02-09 12:12:00,30.0,15.0,30.05,West,270,3.0,18.0,54,0.00,,,0.00,weatherlink.com 1.10,2013-02-09 17:12:00,
2013-02-09 12:27:00,30.4,14.0,30.05,NNW,335,6.0,18.0,51,0.00,,,0.00,weatherlink.com 1.10,2013-02-09 17:27:00,
2013-02-09 12:42:00,30.5,14.0,30.05,WNW,288,5.0,18.0,50,0.00,,,0.00,weatherlink.com 1.10,2013-02-09 17:42:00,
2013-02-09 12:57:00,31.3,14.0,30.05,NNW,330,2.0,14.0,49,0.00,,,0.00,weatherlink.com 1.10,2013-02-09 17:57:00,
2013-02-09 13:12:00,31.4,13.0,30.05,WNW,290,9.0,16.0,47,0.00,,,0.00,weatherlink.com 1.10,2013-02-09 18:12:00,
2013-02-09 13:27:00,31.5,14.0,30.06,West,262,8.0,17.0,48,0.00,,,0.00,weatherlink.com 1.10,2013-02-09 18:27:00,
2013-02-09 13:42:00,31.9,14.0,30.06,West,268,5.0,13.0,47,0.00,,,0.00,weatherlink.com 1.10,2013-02-09 18:42:00,
2013-02-09 13:57:00,32.7,15.0,30.07,NE,42,1.0,10.0,48,0.00,,,0.00,weatherlink.com 1.10,2013-02-09 18:57:00,
2013-02-09 14:13:00,32.3,11.0,30.08,NNW,336,8.0,17.0,41,0.00,,,0.00,weatherlink.com 1.10,2013-02-09 19:13:00,
2013-02-09 14:27:00,32.5,11.0,30.08,SSW,208,3.0,16.0,40,0.00,,,0.00,weatherlink.com 1.10,2013-02-09 19:27:00,
2013-02-09 14:43:00,32.5,11.0,30.09,NNE,20,4.0,17.0,40,0.00,,,0.00,weatherlink.com 1.10,2013-02-09 19:43:00,
2013-02-09 14:57:00,32.1,9.0,30.09,WNW,297,11.0,17.0,38,0.00,,,0.00,weatherlink.com 1.10,2013-02-09 19:57:00,
2013-02-09 15:12:00,32.0,8.0,30.10,NNW,340,3.0,19.0,36,0.00,,,0.00,weatherlink.com 1.10,2013-02-09 20:12:00,
2013-02-09 15:27:00,31.6,7.0,30.10,NNW,328,6.0,14.0,36,0.00,,,0.00,weatherlink.com 1.10,2013-02-09 20:27:00,
2013-02-09 15:42:00,31.2,6.0,30.11,NW,317,6.0,19.0,35,0.00,,,0.00,weatherlink.com 1.10,2013-02-09 20:42:00,
2013-02-09 16:13:00,30.1,7.0,30.13,West,271,9.0,17.0,37,0.00,,,0.00,weatherlink.com 1.10,2013-02-09 21:13:00,
2013-02-09 16:28:00,29.7,6.0,30.14,WNW,302,10.0,14.0,36,0.00,,,0.00,weatherlink.com 1.10,2013-02-09 21:28:00,
2013-02-09 16:43:00,29.3,5.0,30.15,North,352,6.0,18.0,36,0.00,,,0.00,weatherlink.com 1.10,2013-02-09 21:43:00,
2013-02-09 16:58:00,28.7,4.0,30.16,NNE,21,9.0,16.0,35,0.00,,,0.00,weatherlink.com 1.10,2013-02-09 21:58:00,
2013-02-09 17:13:00,28.1,5.0,30.17,WNW,297,6.0,14.0,37,0.00,,,0.00,weatherlink.com 1.10,2013-02-09 22:13:00,
2013-02-09 17:28:00,27.8,4.0,30.18,NNW,340,4.0,16.0,36,0.00,,,0.00,weatherlink.com 1.10,2013-02-09 22:28:00,
2013-02-09 17:43:00,27.5,4.0,30.19,NNE,18,6.0,18.0,37,0.00,,,0.00,weatherlink.com 1.10,2013-02-09 22:43:00,
2013-02-09 17:58:00,27.0,5.0,30.20,North,349,10.0,15.0,39,0.00,,,0.00,weatherlink.com 1.10,2013-02-09 22:58:00,
2013-02-09 18:13:00,26.4,5.0,30.20,North,359,5.0,15.0,40,0.00,,,0.00,weatherlink.com 1.10,2013-02-09 23:13:00,
2013-02-09 18:28:00,26.1,4.0,30.21,North,4,3.0,14.0,39,0.00,,,0.00,weatherlink.com 1.10,2013-02-09 23:28:00,
2013-02-09 18:43:00,25.8,5.0,30.22,North,354,3.0,11.0,41,0.00,,,0.00,weatherlink.com 1.10,2013-02-09 23:43:00,
2013-02-09 18:58:00,25.5,5.0,30.22,ENE,59,4.0,11.0,42,0.00,,,0.00,weatherlink.com 1.10,2013-02-09 23:58:00,
2013-02-09 19:13:00,25.1,5.0,30.23,West,274,6.0,13.0,42,0.00,,,0.00,weatherlink.com 1.10,2013-02-10 00:13:00,
2013-02-09 19:28:00,24.6,5.0,30.24,NE,36,4.0,13.0,43,0.00,,,0.00,weatherlink.com 1.10,2013-02-10 00:28:00,
2013-02-09 19:43:00,24.2,5.0,30.25,NNW,335,1.0,8.0,43,0.00,,,0.00,weatherlink.com 1.10,2013-02-10 00:43:00,
2013-02-09 19:58:00,23.7,5.0,30.26,NNW,338,0.0,8.0,44,0.00,,,0.00,weatherlink.com 1.10,2013-02-10 00:58:00,
2013-02-09 20:13:00,23.3,5.0,30.27,NW,314,6.0,10.0,45,0.00,,,0.00,weatherlink.com 1.10,2013-02-10 01:13:00,
2013-02-09 20:28:00,22.9,5.0,30.27,West,277,5.0,12.0,47,0.00,,,0.00,weatherlink.com 1.10,2013-02-10 01:28:00,
2013-02-09 20:43:00,22.8,5.0,30.29,WNW,298,3.0,12.0,46,0.00,,,0.00,weatherlink.com 1.10,2013-02-10 01:43:00,
2013-02-09 20:58:00,22.4,5.0,30.30,NW,316,3.0,9.0,47,0.00,,,0.00,weatherlink.com 1.10,2013-02-10 01:58:00,
2013-02-09 21:13:00,22.0,5.0,30.31,WNW,297,3.0,9.0,48,0.00,,,0.00,weatherlink.com 1.10,2013-02-10 02:13:00,
2013-02-09 21:28:00,21.7,5.0,30.32,NNW,345,6.0,11.0,48,0.00,,,0.00,weatherlink.com 1.10,2013-02-10 02:28:00,
2013-02-09 21:43:00,21.5,4.0,30.32,NNW,345,3.0,9.0,48,0.00,,,0.00,weatherlink.com 1.10,2013-02-10 02:43:00,
2013-02-09 21:59:00,21.0,4.0,30.33,NNE,19,2.0,10.0,49,0.00,,,0.00,weatherlink.com 1.10,2013-02-10 02:59:00,
2013-02-09 22:14:00,20.9,4.0,30.34,WSW,252,0.0,11.0,49,0.00,,,0.00,weatherlink.com 1.10,2013-02-10 03:14:00,
2013-02-09 22:29:00,20.5,4.0,30.34,WNW,292,6.0,7.0,50,0.00,,,0.00,weatherlink.com 1.10,2013-02-10 03:29:00,
2013-02-09 22:44:00,20.2,5.0,30.34,NW,307,6.0,8.0,52,0.00,,,0.00,weatherlink.com 1.10,2013-02-10 03:44:00,
2013-02-09 22:59:00,19.8,5.0,30.35,West,260,2.0,7.0,53,0.00,,,0.00,weatherlink.com 1.10,2013-02-10 03:59:00,
2013-02-09 23:14:00,19.3,5.0,30.35,North,352,2.0,4.0,55,0.00,,,0.00,weatherlink.com 1.10,2013-02-10 04:14:00,
2013-02-09 23:29:00,18.9,5.0,30.36,NNW,327,1.0,6.0,56,0.00,,,0.00,weatherlink.com 1.10,2013-02-10 04:29:00,
2013-02-09 23:44:00,18.7,5.0,30.37,North,1,2.0,4.0,56,0.00,,,0.00,weatherlink.com 1.10,2013-02-10 04:44:00,
2013-02-09 23:59:00,18.4,5.0,30.37,NNW,346,1.0,4.0,57,0.00,,,0.00,weatherlink.com 1.10,2013-02-10 04:59:00,